EW8576 Weather Reports


Display with metric or nautical units.
time (UTC)temp
F
wind
direction
speed
MPH
gust
MPH
rain 1hr
in
rain 24hr
in
rain mn
in
humidity
%
barometer
mb
20260504050648 39 292 0.0 0.0 0.00 0.00 0.00 1 1009.4
20260504050143 39 292 0.0 0.0 0.00 0.00 0.00 1 1009.5
20260504045637 39 292 0.0 0.0 0.00 0.00 0.00 1 1009.6
20260504045359 39 292 0.0 0.0 0.00 0.00 0.00 1 1009.6
20260504044624 39 292 0.0 0.0 0.00 0.00 0.00 1 1009.7
20260504044118 39 292 0.0 0.0 0.00 0.00 0.00 1 1009.6
20260504043613 39 292 0.0 0.0 0.00 0.00 0.00 1 1009.5
20260504043107 40 292 0.0 0.0 0.00 0.00 0.00 1 1009.5
20260504042601 40 292 0.0 0.0 0.00 0.00 0.00 1 1009.4
20260504042054 40 292 0.0 0.0 0.00 0.00 0.00 1 1009.5
20260504041549 40 292 0.0 0.0 0.00 0.00 0.00 1 1009.5
20260504041043 40 292 0.0 0.0 0.00 0.00 0.00 1 1009.5
20260504040538 40 292 0.0 0.0 0.00 0.00 0.00 1 1009.6
20260504040031 41 292 0.0 0.0 0.00 0.00 0.00 1 1009.5
20260504035525 41 292 0.0 0.0 0.00 0.00 0.00 1 1009.4
20260504035019 41 292 0.0 0.0 0.00 0.00 0.00 1 1009.4
20260504034513 41 292 0.0 0.0 0.00 0.00 0.00 1 1009.4
20260504034007 42 292 0.0 0.0 0.00 0.00 0.00 1 1009.5
20260504033501 42 292 0.0 0.0 0.00 0.00 0.00 1 1009.4
20260504032954 42 292 0.0 0.0 0.00 0.00 0.00 1 1009.4
20260504032711 42 292 0.0 0.0 0.00 0.00 0.00 1 1009.4
20260504031943 42 292 0.0 0.0 0.00 0.00 0.00 1 1009.3
20260504031630 43 292 0.0 0.0 0.00 0.00 0.00 1 1009.4
20260504031517 42 292 0.0 0.0 0.00 0.00 0.00 1 1009.3
20260504030425 43 292 0.0 0.0 0.00 0.00 0.00 1 1009.3
20260504025918 43 292 0.0 0.0 0.00 0.00 0.00 1 1009.3
20260504025413 43 292 0.0 0.0 0.00 0.00 0.00 1 1009.3
20260504024907 43 292 0.0 0.0 0.00 0.00 0.00 1 1009.3
20260504024401 43 292 0.0 0.0 0.00 0.00 0.00 4 1009.2
20260504023854 43 292 0.0 0.0 0.00 0.00 0.00 7 1009.2
20260504023349 44 292 0.0 0.0 0.00 0.00 0.00 15 1009.2
20260504022843 44 292 0.0 0.0 0.00 0.00 0.00 20 1009.2
20260504022337 44 292 0.0 0.0 0.00 0.00 0.00 29 1009.2
20260504021831 44 292 0.0 0.0 0.00 0.00 0.00 33 1009.3
20260504021325 44 292 0.0 0.0 0.00 0.00 0.00 24 1009.3
20260504021041 45 292 0.0 0.0 0.00 0.00 0.00 20 1009.3
20260504020313 45 292 0.0 0.0 0.00 0.00 0.00 17 1009.2
20260504015811 45 292 0.0 0.0 0.00 0.00 0.00 25 1009.2
20260504015310 45 292 0.0 0.0 0.00 0.00 0.00 23 1009.1
20260504014809 46 292 0.0 0.0 0.00 0.00 0.00 27 1009.1
20260504014307 46 292 0.0 0.0 0.00 0.00 0.00 28 1009.1
20260504013807 46 292 0.0 0.0 0.00 0.00 0.00 38 1009.1
20260504013307 47 292 0.0 0.0 0.00 0.00 0.00 41 1009.2
20260504012805 47 292 0.0 0.0 0.00 0.00 0.00 43 1009.2
20260504012304 48 292 0.0 0.0 0.00 0.00 0.00 45 1009.2
20260504011803 48 292 0.0 0.0 0.00 0.00 0.00 47 1009.2
20260504011301 49 0 0.0 0.0 0.00 0.00 0.00 50 1009.1
20260504010801 49 292 0.0 0.0 0.00 0.00 0.00 52 1009.0
20260504010259 50 292 0.0 0.0 0.00 0.00 0.00 52 1009.0
20260504005759 51 292 0.0 0.0 0.00 0.00 0.00 52 1009.0
20260504005259 52 292 0.0 0.0 0.00 0.00 0.00 53 1009.0
20260504004757 52 292 0.0 0.0 0.00 0.00 0.00 48 1009.0
20260504004257 53 292 0.0 0.0 0.00 0.00 0.00 47 1008.9
20260504003755 53 292 0.0 0.0 0.00 0.00 0.00 44 1009.0
20260504003735 54 292 0.0 0.0 0.00 0.00 0.00 43 1008.8
20260504002751 54 300 0.0 0.0 0.00 0.00 0.00 42 1008.7
20260504002514 54 302 0.0 0.0 0.00 0.00 0.00 43 1008.6
20260504001750 54 302 0.0 0.0 0.00 0.00 0.00 42 1008.5
20260504001248 54 306 0.0 0.0 0.00 0.00 0.00 42 1008.4
20260504000749 55 306 0.0 0.0 0.00 0.00 0.00 40 1008.4
20260504000247 55 306 0.0 0.0 0.00 0.00 0.00 40 1008.4
20260503235747 56 306 0.0 0.0 0.00 0.00 0.00 39 1008.3
20260503235246 56 306 0.0 0.0 0.00 0.00 0.00 38 1008.2
20260503234745 56 306 0.0 0.0 0.00 0.00 0.00 38 1008.2
20260503234505 56 306 0.0 0.0 0.00 0.00 0.00 38 1008.1
20260503233742 56 307 0.0 0.0 0.00 0.00 0.00 37 1008.0
20260503233243 56 308 0.0 0.0 0.00 0.00 0.00 37 1008.0
20260503233008 56 308 0.0 2.0 0.00 0.00 0.00 36 1007.9
20260503232243 57 309 0.0 2.0 0.00 0.00 0.00 35 1007.9
20260503231743 57 254 0.0 2.0 0.00 0.00 0.00 36 1007.9
20260503231241 57 337 0.0 2.0 0.00 0.00 0.00 36 1007.8
20260503230739 57 296 0.0 2.0 0.00 0.00 0.00 35 1007.8
20260503230239 57 288 0.0 1.0 0.00 0.00 0.00 35 1007.8
20260503230000 57 300 0.0 4.0 0.00 0.00 0.00 34 1007.7
20260503225239 57 276 0.0 5.0 0.00 0.00 0.00 35 1007.7
20260503224738 58 87 0.0 7.0 0.00 0.00 0.00 34 1007.6
20260503224459 58 330 0.0 7.0 0.00 0.00 0.00 33 1007.3
20260503223738 58 317 0.0 4.0 0.00 0.00 0.00 32 1007.6
20260503223234 58 282 1.0 9.0 0.00 0.00 0.00 32 1007.4
20260503222959 58 312 1.0 13.0 0.00 0.00 0.00 32 1007.3
20260503222234 58 275 0.0 13.0 0.00 0.00 0.00 31 1007.3
20260503221735 58 315 0.0 7.0 0.00 0.00 0.00 30 1007.2
20260503221235 59 296 0.0 5.0 0.00 0.00 0.00 29 1007.2
20260503220735 59 290 0.0 7.0 0.00 0.00 0.00 31 1007.1
20260503220235 58 307 0.0 7.0 0.00 0.00 0.00 31 1007.0
20260503215735 58 338 0.0 7.0 0.00 0.00 0.00 29 1007.0
20260503215458 58 317 0.0 7.0 0.00 0.00 0.00 28 1007.0
20260503214730 59 0 1.0 10.0 0.00 0.00 0.00 28 1007.1
20260503214231 60 308 1.0 10.0 0.00 0.00 0.00 27 1007.2
20260503213731 60 68 1.0 10.0 0.00 0.00 0.00 29 1007.1
20260503213231 60 325 1.0 10.0 0.00 0.00 0.00 27 1007.0
20260503212731 60 286 0.0 9.0 0.00 0.00 0.00 27 1006.9
20260503212230 60 5 0.0 4.0 0.00 0.00 0.00 28 1006.9
20260503211730 60 282 0.0 6.0 0.00 0.00 0.00 28 1006.9
20260503211231 60 10 0.0 6.0 0.00 0.00 0.00 29 1006.9
20260503210731 60 321 0.0 4.0 0.00 0.00 0.00 27 1006.9
20260503210227 60 305 0.0 6.0 0.00 0.00 0.00 28 1006.9
20260503205728 60 252 0.0 6.0 0.00 0.00 0.00 28 1006.8
20260503205223 60 224 0.0 5.0 0.00 0.00 0.00 31 1006.9
20260503204723 59 246 0.0 10.0 0.00 0.00 0.00 31 1006.9
20260503204222 59 17 0.0 10.0 0.00 0.00 0.00 31 1006.9
20260503203722 60 355 0.0 11.0 0.00 0.00 0.00 32 1007.0
20260503203218 59 47 0.0 11.0 0.00 0.00 0.00 32 1007.0
20260503202938 59 301 0.0 7.0 0.00 0.00 0.00 31 1007.1
20260503202216 59 298 1.0 13.0 0.00 0.00 0.00 32 1007.1
20260503201716 59 271 2.0 13.0 0.00 0.00 0.00 32 1007.2
20260503201436 59 273 1.0 12.0 0.00 0.00 0.00 32 1007.3
20260503200714 58 246 0.0 9.0 0.00 0.00 0.00 31 1007.2
20260503200440 58 198 1.0 10.0 0.00 0.00 0.00 34 1007.2
20260503195710 58 319 1.0 10.0 0.00 0.00 0.00 35 1007.3
20260503195208 57 69 1.0 10.0 0.00 0.00 0.00 33 1007.3
20260503194707 57 65 0.0 8.0 0.00 0.00 0.00 34 1007.4
20260503194422 56 61 0.0 8.0 0.00 0.00 0.00 38 1007.7
20260503193656 56 63 0.0 13.0 0.00 0.00 0.00 35 1007.8
20260503193407 55 16 1.0 14.0 0.00 0.00 0.00 37 1007.9
20260503192644 55 80 1.0 14.0 0.00 0.00 0.00 34 1007.9
20260503192359 56 5 1.0 14.0 0.00 0.00 0.00 34 1008.0
20260503191852 57 244 1.0 10.0 0.00 0.00 0.00 32 1008.0
20260503191126 58 263 1.0 15.0 0.00 0.00 0.00 34 1008.0
20260503190620 57 348 1.0 15.0 0.00 0.00 0.00 38 1007.9
20260503190332 57 316 2.0 14.0 0.00 0.00 0.00 34 1008.0
20260503185608 57 307 3.0 16.0 0.00 0.00 0.00 37 1007.9
20260503185102 56 319 3.0 19.0 0.00 0.00 0.00 35 1007.9
20260503184556 56 286 1.0 19.0 0.00 0.00 0.00 35 1008.2
20260503184049 56 76 1.0 15.0 0.00 0.00 0.00 37 1008.3
20260503183544 55 248 1.0 15.0 0.00 0.00 0.00 36 1008.2
20260503183038 55 0 0.0 6.0 0.00 0.00 0.00 40 1008.3
20260503182531 54 0 0.0 6.0 0.00 0.00 0.00 41 1008.4
20260503182025 53 20 0.0 4.0 0.00 0.00 0.00 41 1008.5
20260503181518 53 355 0.0 7.0 0.00 0.00 0.00 41 1008.6
20260503181012 53 271 1.0 13.0 0.00 0.00 0.00 39 1008.6
20260503180506 54 0 0.0 13.0 0.00 0.00 0.00 37 1008.6
20260503180000 54 0 0.0 7.0 0.00 0.00 0.00 40 1008.6
20260503175712 53 0 1.0 8.0 0.00 0.00 0.00 39 1008.7
20260503174948 53 0 1.0 8.0 0.00 0.00 0.00 39 1008.8
20260503174442 53 0 0.0 8.0 0.00 0.00 0.00 40 1008.9
20260503174153 53 0 0.0 6.0 0.00 0.00 0.00 42 1008.9
20260503173429 53 62 0.0 8.0 0.00 0.00 0.00 44 1008.9
20260503172924 52 69 0.0 8.0 0.00 0.00 0.00 43 1009.1
20260503172417 51 60 0.0 7.0 0.00 0.00 0.00 43 1009.1
20260503171912 51 267 0.0 7.0 0.00 0.00 0.00 43 1009.1
20260503171406 51 39 0.0 9.0 0.00 0.00 0.00 45 1009.1
20260503171350 51 30 0.0 9.0 0.00 0.00 0.00 43 1009.1
20260503170350 51 287 0.0 8.0 0.00 0.00 0.00 42 1009.2
20260503150632 51 40 1.0 9.0 0.00 0.00 0.00 41 1009.4
20260503150126 51 294 0.0 9.0 0.00 0.00 0.00 40 1009.3
20260503131018 47 144 0.0 7.0 0.00 0.00 0.00 47 1009.7
20260503130517 47 320 0.0 11.0 0.00 0.00 0.00 47 1009.7
20260503110500 37 52 0.0 0.0 0.00 0.00 0.00 1 1009.1
20260503100217 36 52 0.0 0.0 0.00 0.00 0.00 1 1008.6
20260503090442 37 52 0.0 0.0 0.00 0.00 0.00 1 1008.7
20260503081615 39 51 0.0 0.0 0.00 0.00 0.00 19 1009.0
20260503080845 39 51 0.0 1.0 0.00 0.00 0.00 17 1008.9
20260503080339 39 51 0.0 1.0 0.00 0.00 0.00 21 1008.9
20260503072757 41 51 0.0 1.0 0.00 0.00 0.00 36 1009.0
20260503072518 41 51 0.0 1.0 0.00 0.00 0.00 36 1009.0
20260503071746 41 51 0.0 0.0 0.00 0.00 0.00 42 1009.0
20260503071239 41 51 0.0 2.0 0.00 0.00 0.00 44 1009.0
20260503070733 41 51 0.0 2.0 0.00 0.00 0.00 43 1009.0
20260503070227 41 53 0.0 0.0 0.00 0.00 0.00 41 1009.1